Location: Ahausen
(50.4985°N, 8.2722°E)
Time: 02:19:40
(UTC+00:00)

ITUPSAT 1 - Pass Details

Date: 07 July 2022
Orbit: 701 x 711 km, 98.6° (Epoch: 16 August)

Event Time Altitude Azimuth Distance (km) Brightness Sun altitude
Rises 21:58:15 0° 1° (N) 3,117 ? -14.1°
Reaches altitude 10° 22:01:43 10° 335° (NNW) 2,194 ? -14.3°
Maximum altitude 22:03:51 13° 308° (NW) 1,991 ? -14.4°
Drops below altitude 10° 22:05:59 10° 281° (WNW) 2,191 ? -14.6°
Sets 22:09:26 0° 255° (WSW) 3,107 ? -14.8°
